SCP
0 0 0 0 0 0 0 0 0 0 0 0 0 0 0 0 0 0 0 0 0 0 0 0 0 0 0 0 0 0 0 0 0 0 0 0 0 0 0 0 0 0 0 0
0 0 0 0 0 0 0 0 0 0 0 0 0 0 0 0 0 0 0 0 0 0 0 0 0 0 0 0 0 0 0 0 0 0 0 0 0 0 0 0 0 0 0 0
0 0 0 0 0 0 0 0 0 0 0 0 0 0 0 0 0 0 0 0 0 0 0 0 0 0 0 0 0 0 0 0 0 0 0 0 0 0 0 0 0 0 0 0
0 0 0 0 0 0 0 0 0 0 0 0 0 0 0 0 0 0 0 0 0 0 0 0 0 0 0 0 0 0 0 0 0 0 0 0 0 0 0 0 0 0 0 0
0 0 0 0 0 0 0 0 0 0 0 0 0 0 0 0 0 0 0 0 0 0 0 0 0 0 0 0 0 0 0 0 0 0 0 0 0 0 0 0 0 0 0 0
0 0 0 0 0 0 0 0 0 0 0 0 0 0 0 0 0 0 0 0 0 0 0 0 0 0 0 0 0 0 0 0 0 0 0 0 0 0 0 0 0 0 0 0
0 0 0 0 0 0 0 0 0 0 0 0 0 0 0 0 0 0 0 0 0 0 0 0 0 0 0 0 0 0 0 0 0 0 0 0 0 0 0 0 0 0 0 0
0 0 0 0 0 0 0 0 0 0 0 0 0 0 0 0 0 0 0 0 0 0 0 0 0 0 0 0 0 0 0 0 0 0 0 0 0 0 0 0 0 0 0 0
0 0 0 0 0 0 0 0 0 0 0 0 0 0 0 0 0 0 0 0 0 0 0 0 0 0 0 0 0 0 0 0 0 0 0 0 0 0 0 0 0 0 0 0
0 0 0 0 0 0 0 0 0 0 0 0 0 0 0 0 0 0 0 0 0 0 0 0 0 0 0 0 0 0 0 0 0 0 0 0 0 0 0 0 0 0 0 0
0 0 0 0 0 0 0 0 0 0 0 0 0 0 0 0 0 0 0 0 0 0 0 0 0 0 0 0 0 0 0 0 0 0 0 0 0 0 0 0 0 0 0 0
0 0 0 0 0 0 0 0 0 0 0 0 0 0 0 0 0 0 0 0 0 0 0 0 0 0 0 0 0 0 0 0 0 0 0 0 0 0 0 0 0 0 0 0
0 0 0 0 0 0 0 0 0 0 0 0 0 0 0 0 0 0 0 0 0 0 0 0 0 0 0 0 0 0 0 0 0 0 0 0 0 0 0 0 0 0 0 0
0 0 0 0 0 0 0 0 0 0 0 0 0 0 0 0 0 0 0 0 0 0 0 0 0 0 0 0 0 0 0 0 0 0 0 0 0 0 0 0 0 0 0 0
0 0 0 0 0 0 0 0 0 0 0 0 0 0 0 0 0 0 0 0 0 0 0 0 0 0 0 0 0 0 0 0 0 0 0 0 0 0 0 0 0 0 0 0
0 0 0 0 0 0 0 0 0 0 0 0 0 0 0 0 0 0 0 0 0 0 0 0 0 0 0 0 0 0 0 0 0 0 0 0 0 0 0 0 0 0 0 0
0 0 0 0 0 0 0 0 0 0 0 0 0 0 0 0 0 0 0 0 0 0 0 0 0 0 0 0 0 0 0 0 0 0 0 0 0 0 0 0 0 0 0 0
0 0 0 0 0 0 0 0 0 0 0 0 0 0 0 0 0 0 0 0 0 0 0 0 0 0 0 0 0 0 0 0 0 0 0 0 0 0 0 0 0 0 0 0
0 0 0 0 0 0 0 0 0 0 0 0 0 0 0 0 0 0 0 0 0 0 0 0 0 0 0 0 0 0 0 0 0 0 0 0 0 0 0 0 0 0 0 0
0 0 0 0 0 0 0 0 0 0 0 0 0 0 0 0 0 0 0 0 0 0 0 0 0 0 0 0 0 0 0 0 0 0 0 0 0 0 0 0 0 0 0 0
0 0 0 0 0 0 0 0 0 0 0 0 0 0 0 0 0 0 0 0 0 0 0 0 0 0 0 0 0 0 0 0 0 0 0 0 0 0 0 0 0 0 0 0
0 0 0 0 0 0 0 0 0 0 0 0 0 0 0 0 0 0 0 0 0 0 0 0 0 0 0 0 0 0 0 0 0 0 0 0 0 0 0 0 0 0 0 0
0 0 0 0 0 0 0 0 0 0 0 0 0 0 0 0 0 0 0 0 0 0 0 0 0 0 0 0 0 0 0 0 0 0 0 0 0 0 0 0 0 0 0 0
0 0 0 0 0 0 0 0 0 0 0 0 0 0 0 0 0 0 0 0 0 0 0 0 0 0 0 0 0 0 0 0 0 0 0 0 0 0 0 0 0 0 0 0
0 0 0 0 0 0 0 0 0 0 0 0 0 0 0 0 0 0 0 0 0 0 0 0 0 0 0 0 0 0 0 0 0 0 0 0 0 0 0 0 0 0 0 0
0 0 0 0 0 0 0 0 0 0 0 0 0 0 0 0 0 0 0 0 0 0 0 0 0 0 0 0 0 0 0 0 0 0 0 0 0 0 0 0 0 0 0 0
Wind_Speed
1 3 5 6 8 6 4 6 8 5 2 6 12 14 12 9 10 10 10 9 8 7 5 4 3 3 2 2 1 1 2 2 2 1 1 1 1 1 1 1 2 1 1 1
3 5 5 4 5 6 6 8 9 5 3 6 10 15 13 10 12 10 10 9 8 7 5 4 4 3 3 2 2 1 1 2 2 1 1 1 1 1 1 1 1 1 1 1
6 1 2 4 5 7 8 9 9 8 4 5 8 12 10 8 9 9 9 9 8 8 7 5 4 4 3 3 3 2 2 2 2 2 2 2 1 1 1 0 0 1 1 0
4 3 3 4 5 7 8 5 7 7 7 5 4 9 6 6 8 9 9 9 9 7 6 5 5 4 4 3 2 2 2 2 2 2 3 3 2 2 2 1 1 1 0 0
3 1 3 6 5 6 4 2 4 6 7 8 7 9 8 4 8 10 9 9 8 7 6 6 5 5 4 3 2 2 2 1 1 2 3 4 3 2 2 2 2 1 1 1
3 2 3 3 2 3 2 2 2 3 5 9 8 10 9 5 6 5 7 7 7 6 6 5 4 4 3 3 2 2 2 1 1 1 2 4 3 3 3 3 2 2 1 1
4 4 3 3 3 3 4 4 4 5 6 7 4 9 10 2 3 4 4 6 6 6 6 5 4 3 3 3 2 2 2 2 2 2 2 3 3 4 4 3 3 2 2 2
5 5 5 4 5 5 6 6 6 6 7 5 6 10 6 2 2 3 3 4 5 5 5 5 4 3 3 3 3 3 3 2 2 2 2 2 2 3 2 3 2 3 2 2
5 4 1 1 2 4 5 7 4 5 5 8 8 8 7 5 5 5 4 5 5 5 5 5 4 3 3 3 3 3 3 2 2 2 2 2 2 2 3 3 3 2 2 2
4 5 2 1 2 2 4 3 4 6 7 9 9 9 6 5 6 6 6 6 5 5 4 4 4 4 3 3 2 2 3 3 2 2 2 2 2 2 2 3 3 3 3 3
4 5 2 3 6 7 6 6 6 5 5 7 8 6 1 4 3 5 6 5 5 5 4 4 4 4 3 3 3 3 3 2 2 2 2 2 2 2 2 3 3 3 3 3
4 4 5 5 1 2 5 7 8 7 7 7 8 7 3 1 2 3 4 4 4 5 4 3 3 3 3 3 3 3 2 2 2 2 2 2 2 2 2 2 3 3 3 3
5 5 4 3 4 4 5 6 8 6 5 8 10 9 2 1 2 3 3 4 4 3 3 3 3 3 3 3 3 3 3 3 2 2 2 2 2 2 2 2 2 2 3 3
4 6 8 10 5 4 7 8 9 9 8 10 15 15 7 5 6 5 5 4 4 3 3 3 3 3 2 2 2 2 2 2 2 3 3 3 3 3 3 2 2 2 3 3
5 7 8 11 8 7 10 11 12 15 15 14 14 15 14 8 6 5 4 3 3 3 3 3 3 2 2 2 2 2 2 2 2 2 3 3 3 3 2 2 2 2 3 3
5 5 4 8 7 8 12 14 15 16 16 17 17 17 9 5 3 4 4 3 3 3 3 3 2 2 2 2 2 2 2 2 2 2 2 2 2 2 1 1 1 2 2 2
6 6 5 7 4 6 12 12 13 11 11 11 15 12 3 3 4 4 4 4 4 3 3 2 2 2 2 2 2 2 2 2 2 2 2 2 1 1 1 1 1 2 3 3
6 6 4 4 3 11 4 1 6 9 9 9 9 6 5 5 3 2 2 3 3 2 2 2 1 1 2 2 2 2 1 1 1 1 2 2 2 2 2 1 2 2 3 3
5 6 4 4 6 11 5 2 3 6 7 7 9 8 4 1 1 2 2 2 2 2 1 1 1 1 1 1 2 1 1 1 1 2 2 3 2 2 2 2 3 3 3 3
1 4 5 5 7 9 1 2 0 2 6 3 5 6 4 2 4 2 1 1 0 0 1 1 1 1 1 1 1 1 1 1 2 3 3 3 3 3 3 3 3 3 3 3
4 5 7 9 9 9 1 1 3 5 3 0 4 5 5 5 4 1 2 1 1 1 1 1 1 1 1 1 1 1 1 2 3 3 3 3 3 3 3 3 3 3 3 3
7 7 7 6 8 9 3 5 6 3 2 1 2 3 3 3 1 1 1 1 1 1 1 1 1 1 1 1 1 1 2 3 3 3 3 3 3 3 2 3 3 3 3 3
7 6 5 7 6 1 4 4 2 2 2 2 1 2 3 3 3 2 1 1 1 0 1 1 1 1 2 2 1 2 3 3 3 3 3 3 3 3 3 3 3 3 3 3
4 2 4 5 6 4 4 3 3 3 3 2 1 2 3 3 3 2 2 1 1 1 1 1 1 1 2 2 2 2 3 3 2 3 3 3 3 3 2 2 2 2 3 3
2 4 4 6 4 4 4 5 5 3 2 1 1 1 2 3 3 2 2 2 1 1 1 1 1 2 2 2 3 3 2 2 3 3 3 3 3 3 3 3 3 3 3 4
3 5 6 6 4 4 3 1 2 2 2 2 1 1 1 2 2 2 1 1 1 1 1 1 1 2 2 3 3 3 3 2 3 3 3 3 3 3 3 3 3 5 6 7
Wind_Direction
159 200 215 217 222 247 246 241 252 255 241 242 248 259 255 228 221 224 221 217 217 220 215 201 194 192 184 168 147 133 153 139 129 134 142 139 115 84 70 54 37 30 52 75
183 229 244 236 219 225 239 253 261 263 248 257 270 268 260 231 226 227 226 223 220 220 216 206 197 195 197 190 175 170 185 171 161 163 169 165 135 113 72 64 37 14 41 85
221 260 224 206 215 230 239 249 259 266 277 244 280 269 238 219 220 225 228 229 225 217 218 214 208 206 205 205 202 200 208 201 184 176 160 133 123 122 150 132 103 353 358 61
241 251 222 226 235 237 252 248 253 258 265 264 263 281 249 212 219 223 226 224 224 219 215 216 216 213 214 214 203 200 210 209 200 178 183 178 187 198 214 211 202 209 224 161
227 225 227 237 248 238 260 284 253 254 255 265 233 254 264 203 235 229 224 222 218 215 213 214 219 218 217 212 195 191 200 199 201 203 197 196 201 206 198 198 195 194 191 200
254 250 263 258 274 230 199 237 242 234 241 251 232 233 264 219 234 233 217 214 213 210 210 212 218 216 209 201 185 183 187 187 191 215 217 205 197 196 194 201 199 201 200 216
240 226 224 228 214 190 213 234 243 231 225 244 191 231 253 241 225 238 222 208 206 203 203 205 206 202 201 196 185 188 191 194 198 207 220 221 202 200 206 207 205 210 214 230
249 244 200 209 223 217 212 227 241 258 260 262 214 239 250 205 222 236 227 212 205 203 202 207 209 202 202 200 195 193 199 204 206 210 219 224 221 211 213 221 220 220 230 240
238 251 123 220 260 217 202 219 250 266 275 270 247 249 255 212 227 223 216 206 207 209 209 209 208 209 208 204 204 208 209 213 216 218 223 223 226 230 221 220 224 225 236 245
225 252 243 251 218 221 251 196 193 218 249 257 259 248 245 223 227 219 218 218 219 212 210 208 208 212 213 211 211 214 213 214 219 220 223 231 234 240 242 228 223 226 232 238
214 231 230 211 216 209 184 199 219 228 247 255 267 256 235 240 232 223 223 223 215 212 213 214 216 213 210 206 208 215 217 218 218 221 226 233 231 234 241 242 234 232 231 233
198 228 246 233 227 295 231 220 208 228 233 237 265 270 83 261 254 239 234 225 215 215 216 214 215 213 212 209 210 215 219 222 227 223 224 234 232 231 242 253 248 241 236 233
168 200 245 230 196 193 222 221 221 235 249 238 247 257 98 304 280 258 251 241 225 212 213 217 217 220 224 222 216 217 218 224 229 224 221 232 231 235 250 259 265 257 247 244
184 215 233 256 282 210 227 225 215 215 233 245 245 262 266 273 269 264 254 252 245 228 219 227 235 236 239 247 232 228 229 226 225 222 221 231 237 240 255 261 266 273 258 248
200 235 241 259 267 252 250 244 224 224 234 246 258 261 270 266 260 259 257 261 254 247 241 239 242 254 250 260 258 243 242 237 229 224 230 242 247 247 245 247 266 279 273 260
204 234 242 259 253 255 260 252 237 236 242 248 262 268 278 277 265 256 249 242 238 249 250 246 246 261 259 263 271 260 251 250 235 230 248 258 243 237 241 256 271 282 284 281
197 200 226 259 270 276 257 239 222 223 228 233 246 258 272 255 245 243 241 227 238 253 252 243 245 263 271 276 280 274 269 259 237 243 268 285 271 258 262 270 281 283 283 284
195 195 222 257 250 244 254 95 215 227 244 235 249 266 264 268 278 274 245 240 254 259 254 254 258 282 301 307 305 306 297 260 246 268 290 302 300 287 287 279 274 280 280 282
213 197 209 223 250 268 264 192 191 220 259 236 241 257 272 320 281 261 251 239 246 257 275 281 280 283 311 322 321 327 322 302 286 292 299 304 299 287 284 280 283 283 287 286
176 208 217 218 241 255 267 104 141 204 260 232 221 232 228 198 249 263 100 155 227 12 23 11 20 15 359 347 348 344 319 307 299 302 304 303 295 280 276 278 282 285 285 284
178 201 219 228 242 262 355 135 172 215 275 26 214 218 206 213 252 55 108 100 84 61 47 42 49 12 347 346 342 320 311 305 308 310 308 305 298 286 281 284 285 287 288 288
189 191 204 210 228 248 125 152 203 254 348 258 233 222 215 218 188 158 152 134 113 73 46 36 23 356 349 338 312 309 311 316 317 314 309 306 304 299 294 291 292 291 289 286
212 209 203 206 223 342 159 197 261 316 278 274 250 227 194 193 202 204 208 204 202 273 340 349 339 335 336 335 322 305 314 322 317 311 308 308 312 306 301 293 291 290 287 286
221 243 227 240 250 253 238 261 284 278 268 281 246 206 193 199 204 209 214 219 242 280 312 323 329 320 328 339 331 312 313 313 306 304 307 309 310 310 302 294 286 283 282 284
222 187 219 248 270 283 261 255 264 275 287 292 273 219 208 196 206 213 226 235 245 274 309 315 308 307 315 326 324 322 317 313 304 301 301 302 301 303 297 288 282 283 278 285
199 202 214 244 245 241 263 267 253 242 244 229 206 207 183 197 209 213 231 246 256 275 300 307 304 304 311 315 314 317 317 309 299 297 299 298 298 297 295 292 291 285 286 291